TimeEDT,TemperatureF,Dew PointF,Humidity,Sea Level PressureIn,VisibilityMPH,Wind Direction,Wind SpeedMPH,Gust SpeedMPH,PrecipitationIn,Events,Conditions,WindDirDegrees,DateUTC
12:15 AM,44.6,42.8,93,30.35,5.0,ENE,3.5,-,N/A,,Clear,70,2012-10-13 04:15:00
12:35 AM,44.6,42.8,93,30.35,5.0,Calm,Calm,-,N/A,,Clear,0,2012-10-13 04:35:00
12:55 AM,44.6,42.8,93,30.34,5.0,East,4.6,-,N/A,,Clear,80,2012-10-13 04:55:00
1:55 AM,42.8,42.8,100,30.33,3.0,Calm,Calm,-,N/A,,Overcast,0,2012-10-13 05:55:00
2:35 AM,42.8,42.8,100,30.33,1.0,Calm,Calm,-,N/A,,Overcast,0,2012-10-13 06:35:00
2:55 AM,42.8,42.8,100,30.33,0.5,Calm,Calm,-,N/A,,Overcast,0,2012-10-13 06:55:00
3:15 AM,42.8,42.8,100,30.32,0.5,Calm,Calm,-,N/A,,Overcast,0,2012-10-13 07:15:00
3:35 AM,42.8,42.8,100,30.31,0.2,Calm,Calm,-,N/A,,Overcast,0,2012-10-13 07:35:00
3:55 AM,42.8,42.8,100,30.31,0.2,Calm,Calm,-,N/A,,Overcast,0,2012-10-13 07:55:00
4:15 AM,42.8,42.8,100,30.31,0.2,Calm,Calm,-,N/A,,Overcast,0,2012-10-13 08:15:00
4:35 AM,42.8,42.8,100,30.31,0.2,East,4.6,-,N/A,,Overcast,90,2012-10-13 08:35:00
4:55 AM,42.8,42.8,100,30.32,0.2,Calm,Calm,-,N/A,,Overcast,0,2012-10-13 08:55:00
5:15 AM,42.8,42.8,100,30.32,0.5,Calm,Calm,-,N/A,,Overcast,0,2012-10-13 09:15:00
5:35 AM,42.8,42.8,100,30.33,0.2,Calm,Calm,-,N/A,,Overcast,0,2012-10-13 09:35:00
5:55 AM,42.8,42.8,100,30.33,0.2,Calm,Calm,-,N/A,,Overcast,0,2012-10-13 09:55:00
6:15 AM,42.8,41.0,93,30.33,0.2,Calm,Calm,-,N/A,,Overcast,0,2012-10-13 10:15:00
6:55 AM,42.8,41.0,93,30.33,0.8,Calm,Calm,-,N/A,,Overcast,0,2012-10-13 10:55:00
7:15 AM,41.0,41.0,100,30.33,0.2,Calm,Calm,-,N/A,,Overcast,0,2012-10-13 11:15:00
7:35 AM,41.0,41.0,100,30.33,0.2,Calm,Calm,-,N/A,,Overcast,0,2012-10-13 11:35:00
7:55 AM,41.0,41.0,100,30.33,0.2,North,-9999.0,-,N/A,,Overcast,0,2012-10-13 11:55:00
8:15 AM,41.0,41.0,100,30.33,0.2,Calm,Calm,-,N/A,,Overcast,0,2012-10-13 12:15:00
8:35 AM,42.8,41.0,93,30.33,0.5,Calm,Calm,-,N/A,,Overcast,0,2012-10-13 12:35:00
8:55 AM,42.8,42.8,100,30.33,3.0,Calm,Calm,-,N/A,,Scattered Clouds,0,2012-10-13 12:55:00
9:15 AM,46.4,44.6,93,30.34,10.0,ESE,3.5,-,N/A,,Clear,110,2012-10-13 13:15:00
9:55 AM,53.6,46.4,77,30.35,10.0,ENE,3.5,-,N/A,,Clear,60,2012-10-13 13:55:00
10:35 AM,60.8,44.6,55,30.35,10.0,ENE,3.5,-,N/A,,Clear,70,2012-10-13 14:35:00
10:55 AM,60.8,44.6,55,30.35,10.0,ENE,4.6,-,N/A,,Clear,60,2012-10-13 14:55:00
11:15 AM,62.6,44.6,52,30.35,10.0,East,4.6,-,N/A,,Clear,80,2012-10-13 15:15:00
11:35 AM,62.6,44.6,52,30.34,10.0,Calm,Calm,-,N/A,,Clear,0,2012-10-13 15:35:00
11:55 AM,64.4,46.4,52,30.33,10.0,Calm,Calm,-,N/A,,Clear,0,2012-10-13 15:55:00
12:15 PM,66.2,48.2,52,30.32,10.0,ESE,3.5,-,N/A,,Clear,110,2012-10-13 16:15:00
12:35 PM,66.2,46.4,49,30.30,10.0,South,3.5,-,N/A,,Clear,170,2012-10-13 16:35:00
12:55 PM,69.8,50.0,49,30.30,10.0,SSW,3.5,-,N/A,,Clear,200,2012-10-13 16:55:00
1:35 PM,69.8,50.0,49,30.28,10.0,SSE,4.6,-,N/A,,Clear,160,2012-10-13 17:35:00
1:55 PM,71.6,50.0,46,30.28,10.0,SSE,4.6,-,N/A,,Clear,160,2012-10-13 17:55:00
2:15 PM,71.6,50.0,46,30.27,10.0,SSE,4.6,-,N/A,,Clear,160,2012-10-13 18:15:00
2:35 PM,71.6,50.0,46,30.26,10.0,Calm,Calm,-,N/A,,Clear,0,2012-10-13 18:35:00
2:55 PM,73.4,50.0,44,30.26,10.0,SSE,3.5,-,N/A,,Clear,160,2012-10-13 18:55:00
3:15 PM,73.4,50.0,44,30.25,10.0,South,5.8,-,N/A,,Clear,170,2012-10-13 19:15:00
3:35 PM,73.4,51.8,47,30.24,10.0,SW,3.5,-,N/A,,Clear,220,2012-10-13 19:35:00
3:55 PM,73.4,51.8,47,30.23,10.0,South,3.5,-,N/A,,Clear,170,2012-10-13 19:55:00
4:15 PM,73.4,51.8,47,30.23,10.0,SW,4.6,-,N/A,,Clear,220,2012-10-13 20:15:00
4:35 PM,73.4,51.8,47,30.23,10.0,South,4.6,-,N/A,,Scattered Clouds,190,2012-10-13 20:35:00
4:55 PM,73.4,51.8,47,30.22,10.0,South,3.5,-,N/A,,Clear,180,2012-10-13 20:55:00
5:15 PM,71.6,51.8,50,30.22,10.0,Calm,Calm,-,N/A,,Clear,0,2012-10-13 21:15:00
5:35 PM,71.6,51.8,50,30.22,10.0,South,3.5,-,N/A,,Clear,190,2012-10-13 21:35:00
5:55 PM,69.8,51.8,53,30.22,10.0,SSE,4.6,-,N/A,,Clear,160,2012-10-13 21:55:00
6:15 PM,69.8,51.8,53,30.21,10.0,SE,3.5,-,N/A,,Clear,130,2012-10-13 22:15:00
6:55 PM,68.0,51.8,56,30.22,10.0,Calm,Calm,-,N/A,,Clear,0,2012-10-13 22:55:00
7:15 PM,66.2,53.6,64,30.22,10.0,Calm,Calm,-,N/A,,Clear,0,2012-10-13 23:15:00
7:35 PM,66.2,51.8,60,30.22,10.0,Calm,Calm,-,N/A,,Scattered Clouds,0,2012-10-13 23:35:00
8:35 PM,60.8,53.6,77,30.23,10.0,Calm,Calm,-,N/A,,Mostly Cloudy,0,2012-10-14 00:35:00
9:15 PM,62.6,53.6,72,30.23,10.0,Calm,Calm,-,N/A,,Overcast,0,2012-10-14 01:15:00
10:15 PM,62.6,51.8,68,30.22,10.0,Calm,Calm,-,N/A,,Clear,0,2012-10-14 02:15:00
10:35 PM,60.8,51.8,72,30.22,10.0,Calm,Calm,-,N/A,,Clear,0,2012-10-14 02:35:00
10:55 PM,59.0,51.8,77,30.21,10.0,Calm,Calm,-,N/A,,Clear,0,2012-10-14 02:55:00
11:15 PM,59.0,51.8,77,30.22,10.0,Calm,Calm,-,N/A,,Clear,0,2012-10-14 03:15:00